Time,TemperatureF,DewpointF,PressureIn,WindDirection,WindDirectionDegrees,WindSpeedMPH,WindSpeedGustMPH,Humidity,HourlyPrecipIn,Conditions,Clouds,dailyrainin,SoftwareType,DateUTC
2013-02-12 00:01:00,32.0,30.0,29.53,North,5,0.0,1.0,94,0.00,,,0.00,,2013-02-12 05:01:00,
2013-02-12 00:11:00,32.0,30.0,29.53,North,5,0.0,1.0,94,0.00,,,0.00,,2013-02-12 05:11:00,
2013-02-12 00:21:00,32.0,30.0,29.52,North,5,0.0,1.0,94,0.00,,,0.00,,2013-02-12 05:21:00,
2013-02-12 00:32:00,32.0,30.0,29.52,North,5,0.0,1.0,94,0.00,,,0.00,,2013-02-12 05:32:00,
2013-02-12 00:42:00,32.0,30.0,29.52,North,5,0.0,1.0,94,0.00,,,0.00,,2013-02-12 05:42:00,
2013-02-12 00:52:00,32.0,30.0,29.51,North,5,0.0,0.0,94,0.00,,,0.00,,2013-02-12 05:52:00,
2013-02-12 01:02:00,32.0,31.0,29.50,North,5,0.0,1.0,95,0.00,,,0.00,,2013-02-12 06:02:00,
2013-02-12 01:12:00,31.0,30.0,29.49,North,5,0.0,1.0,95,0.00,,,0.00,,2013-02-12 06:12:00,
2013-02-12 01:22:00,31.0,30.0,29.49,North,5,0.0,1.0,95,0.00,,,0.00,,2013-02-12 06:22:00,
2013-02-12 01:32:00,31.0,30.0,29.50,North,5,0.0,0.0,95,0.00,,,0.00,,2013-02-12 06:32:00,
2013-02-12 01:42:00,31.0,29.0,29.51,SSW,210,0.0,2.0,94,0.00,,,0.00,,2013-02-12 06:42:00,
2013-02-12 01:52:00,31.0,29.0,29.51,SSW,210,0.0,2.0,94,0.00,,,0.00,,2013-02-12 06:52:00,
2013-02-12 02:02:00,33.0,32.0,29.52,South,190,2.0,5.0,96,0.00,,,0.00,,2013-02-12 07:02:00,
2013-02-12 02:11:00,33.0,32.0,29.52,South,190,2.0,5.0,96,0.00,,,0.00,,2013-02-12 07:11:00,
2013-02-12 02:21:00,35.0,33.0,29.52,SSW,205,2.0,7.0,91,0.00,,,0.00,,2013-02-12 07:21:00,
2013-02-12 02:32:00,36.0,33.0,29.52,SSW,192,2.0,6.0,89,0.00,,,0.00,,2013-02-12 07:32:00,
2013-02-12 02:42:00,36.0,33.0,29.52,SSW,192,2.0,6.0,89,0.00,,,0.00,,2013-02-12 07:42:00,
2013-02-12 02:52:00,35.0,32.0,29.52,SW,234,1.0,3.0,89,0.00,,,0.00,,2013-02-12 07:52:00,
2013-02-12 03:01:00,35.0,32.0,29.52,SSW,192,1.0,5.0,90,0.00,,,0.00,,2013-02-12 08:01:00,
2013-02-12 03:11:00,35.0,32.0,29.52,SSW,192,1.0,5.0,90,0.00,,,0.00,,2013-02-12 08:11:00,
2013-02-12 03:22:00,34.0,31.0,29.52,SSW,209,1.0,3.0,90,0.00,,,0.00,,2013-02-12 08:22:00,
2013-02-12 03:32:00,34.0,31.0,29.52,SW,226,1.0,3.0,90,0.00,,,0.00,,2013-02-12 08:32:00,
2013-02-12 03:42:00,34.0,31.0,29.52,SW,226,1.0,3.0,90,0.00,,,0.00,,2013-02-12 08:42:00,
2013-02-12 03:52:00,34.0,31.0,29.52,SW,229,2.0,9.0,89,0.00,,,0.00,,2013-02-12 08:52:00,
2013-02-12 04:02:00,34.0,31.0,29.52,SW,229,2.0,9.0,89,0.00,,,0.00,,2013-02-12 09:02:00,
2013-02-12 04:11:00,34.0,31.0,29.52,SW,229,2.0,9.0,89,0.00,,,0.00,,2013-02-12 09:11:00,
2013-02-12 04:22:00,34.0,31.0,29.52,South,180,0.0,4.0,88,0.00,,,0.00,,2013-02-12 09:22:00,
2013-02-12 04:32:00,33.0,30.0,29.52,SSW,193,1.0,3.0,90,0.00,,,0.00,,2013-02-12 09:32:00,
2013-02-12 04:42:00,33.0,30.0,29.52,SSW,193,1.0,3.0,90,0.00,,,0.00,,2013-02-12 09:42:00,
2013-02-12 04:52:00,33.0,31.0,29.53,SSE,156,1.0,2.0,91,0.00,,,0.00,,2013-02-12 09:52:00,
2013-02-12 05:01:00,32.0,29.0,29.54,SSE,156,0.0,0.0,89,0.00,,,0.00,,2013-02-12 10:01:00,
2013-02-12 05:11:00,31.0,29.0,29.54,SSE,156,0.0,0.0,92,0.00,,,0.00,,2013-02-12 10:11:00,
2013-02-12 05:21:00,31.0,29.0,29.54,SSE,156,0.0,0.0,92,0.00,,,0.00,,2013-02-12 10:21:00,
2013-02-12 05:32:00,31.0,29.0,29.54,SSE,156,0.0,0.0,94,0.00,,,0.00,,2013-02-12 10:32:00,
2013-02-12 05:43:00,31.0,29.0,29.54,SSE,156,0.0,0.0,94,0.00,,,0.00,,2013-02-12 10:43:00,
2013-02-12 05:52:00,31.0,30.0,29.54,SSE,159,0.0,2.0,95,0.00,,,0.00,,2013-02-12 10:52:00,
2013-02-12 06:01:00,32.0,31.0,29.54,SSE,159,0.0,2.0,95,0.00,,,0.00,,2013-02-12 11:01:00,
2013-02-12 06:11:00,32.0,31.0,29.54,SSE,159,0.0,2.0,95,0.00,,,0.00,,2013-02-12 11:11:00,
2013-02-12 06:22:00,32.0,30.0,29.54,SSE,159,1.0,2.0,94,0.00,,,0.00,,2013-02-12 11:22:00,
2013-02-12 06:32:00,32.0,30.0,29.55,SE,145,1.0,2.0,94,0.00,,,0.00,,2013-02-12 11:32:00,
2013-02-12 06:42:00,32.0,30.0,29.55,SE,145,1.0,2.0,94,0.00,,,0.00,,2013-02-12 11:42:00,
2013-02-12 06:53:00,32.0,30.0,29.55,South,182,0.0,2.0,93,0.00,,,0.00,,2013-02-12 11:53:00,
2013-02-12 07:02:00,32.0,30.0,29.55,South,176,0.0,1.0,93,0.00,,,0.00,,2013-02-12 12:02:00,
2013-02-12 07:11:00,32.0,30.0,29.55,South,176,0.0,1.0,93,0.00,,,0.00,,2013-02-12 12:11:00,
2013-02-12 07:22:00,32.0,30.0,29.55,SSW,210,1.0,2.0,93,0.00,,,0.00,,2013-02-12 12:22:00,
2013-02-12 07:32:00,32.0,30.0,29.55,SSW,200,1.0,3.0,94,0.00,,,0.00,,2013-02-12 12:32:00,
2013-02-12 07:42:00,32.0,30.0,29.55,SSW,200,1.0,3.0,94,0.00,,,0.00,,2013-02-12 12:42:00,
2013-02-12 07:53:00,33.0,31.0,29.55,SSE,153,1.0,3.0,92,0.00,,,0.00,,2013-02-12 12:53:00,
2013-02-12 08:02:00,33.0,31.0,29.56,SE,143,0.0,2.0,92,0.00,,,0.00,,2013-02-12 13:02:00,
2013-02-12 08:11:00,33.0,31.0,29.56,SE,143,0.0,2.0,92,0.00,,,0.00,,2013-02-12 13:11:00,
2013-02-12 08:22:00,33.0,31.0,29.55,SE,132,0.0,2.0,92,0.00,,,0.00,,2013-02-12 13:22:00,
2013-02-12 08:32:00,35.0,30.0,29.55,South,176,2.0,8.0,83,0.00,,,0.00,,2013-02-12 13:32:00,
2013-02-12 08:42:00,35.0,30.0,29.55,South,176,2.0,8.0,83,0.00,,,0.00,,2013-02-12 13:42:00,
2013-02-12 08:52:00,37.0,31.0,29.55,South,180,2.0,8.0,78,0.00,,,0.00,,2013-02-12 13:52:00,
2013-02-12 09:01:00,38.0,31.0,29.55,South,171,3.0,8.0,75,0.00,,,0.00,,2013-02-12 14:01:00,
2013-02-12 09:12:00,38.0,31.0,29.55,South,171,3.0,8.0,75,0.00,,,0.00,,2013-02-12 14:12:00,
2013-02-12 09:22:00,38.0,30.0,29.56,SSW,205,2.0,7.0,74,0.00,,,0.00,,2013-02-12 14:22:00,
2013-02-12 09:32:00,39.0,30.0,29.57,SSW,194,3.0,9.0,71,0.00,,,0.00,,2013-02-12 14:32:00,
2013-02-12 09:42:00,39.0,30.0,29.57,SSW,194,3.0,9.0,71,0.00,,,0.00,,2013-02-12 14:42:00,
2013-02-12 09:52:00,40.0,30.0,29.57,SE,138,4.0,11.0,67,0.00,,,0.00,,2013-02-12 14:52:00,
2013-02-12 10:02:00,43.0,32.0,29.57,South,180,3.0,11.0,64,0.00,,,0.00,,2013-02-12 15:02:00,
2013-02-12 10:11:00,44.0,29.0,29.56,South,191,8.0,17.0,56,0.00,,,0.00,,2013-02-12 15:11:00,
2013-02-12 10:21:00,44.0,29.0,29.56,South,191,8.0,17.0,56,0.00,,,0.00,,2013-02-12 15:21:00,
2013-02-12 10:32:00,46.0,31.0,29.57,SSW,211,5.0,15.0,55,0.03,,,0.03,,2013-02-12 15:32:00,
2013-02-12 10:42:00,46.0,31.0,29.57,SSW,211,5.0,15.0,55,0.03,,,0.03,,2013-02-12 15:42:00,
2013-02-12 10:52:00,48.0,30.0,29.57,WSW,239,3.0,10.0,50,0.05,,,0.05,,2013-02-12 15:52:00,
2013-02-12 11:01:00,48.0,30.0,29.57,SSW,203,6.0,12.0,49,0.06,,,0.06,,2013-02-12 16:01:00,
2013-02-12 11:32:00,47.0,29.0,29.58,SE,127,3.0,12.0,50,0.03,,,0.06,,2013-02-12 16:32:00,
2013-02-12 11:42:00,47.0,29.0,29.58,SE,127,3.0,12.0,50,0.03,,,0.06,,2013-02-12 16:42:00,
2013-02-12 11:52:00,47.0,29.0,29.57,NW,321,4.0,18.0,49,0.01,,,0.06,,2013-02-12 16:52:00,
2013-02-12 12:01:00,46.0,28.0,29.57,SSE,162,4.0,15.0,50,0.00,,,0.06,,2013-02-12 17:01:00,
2013-02-12 12:12:00,46.0,28.0,29.57,SSE,162,4.0,15.0,50,0.00,,,0.06,,2013-02-12 17:12:00,
2013-02-12 12:21:00,47.0,28.0,29.57,SSW,198,8.0,18.0,48,0.00,,,0.06,,2013-02-12 17:21:00,
2013-02-12 12:32:00,48.0,30.0,29.57,SSE,164,4.0,13.0,49,0.00,,,0.06,,2013-02-12 17:32:00,
2013-02-12 12:42:00,48.0,30.0,29.57,SSE,164,4.0,13.0,49,0.00,,,0.06,,2013-02-12 17:42:00,
2013-02-12 12:52:00,48.0,30.0,29.57,SSE,164,4.0,13.0,49,0.00,,,0.06,,2013-02-12 17:52:00,
2013-02-12 13:02:00,45.0,29.0,29.58,SE,142,3.0,20.0,54,0.00,,,0.06,,2013-02-12 18:02:00,
2013-02-12 13:12:00,45.0,29.0,29.58,SE,142,3.0,20.0,54,0.00,,,0.06,,2013-02-12 18:12:00,
2013-02-12 13:23:00,44.0,29.0,29.58,South,187,3.0,15.0,55,0.00,,,0.06,,2013-02-12 18:23:00,
2013-02-12 13:32:00,44.0,29.0,29.58,South,172,3.0,9.0,55,0.00,,,0.06,,2013-02-12 18:32:00,
2013-02-12 13:42:00,44.0,29.0,29.58,South,172,3.0,9.0,55,0.00,,,0.06,,2013-02-12 18:42:00,
2013-02-12 13:51:00,44.0,30.0,29.59,WSW,252,3.0,9.0,57,0.00,,,0.06,,2013-02-12 18:51:00,
2013-02-12 14:02:00,43.0,29.0,29.59,South,174,5.0,13.0,58,0.00,,,0.06,,2013-02-12 19:02:00,
2013-02-12 14:11:00,43.0,29.0,29.59,South,174,5.0,13.0,58,0.00,,,0.06,,2013-02-12 19:11:00,
2013-02-12 14:21:00,42.0,29.0,29.60,South,190,5.0,12.0,59,0.00,,,0.06,,2013-02-12 19:21:00,
2013-02-12 14:32:00,42.0,29.0,29.60,South,190,5.0,12.0,59,0.00,,,0.06,,2013-02-12 19:32:00,
2013-02-12 14:42:00,42.0,29.0,29.60,South,190,5.0,12.0,59,0.00,,,0.06,,2013-02-12 19:42:00,
2013-02-12 14:51:00,41.0,28.0,29.61,SSE,148,4.0,13.0,60,0.00,,,0.06,,2013-02-12 19:51:00,
2013-02-12 15:01:00,41.0,29.0,29.61,SE,132,3.0,10.0,61,0.00,,,0.06,,2013-02-12 20:01:00,
2013-02-12 15:11:00,41.0,29.0,29.61,SE,132,3.0,10.0,61,0.00,,,0.06,,2013-02-12 20:11:00,
2013-02-12 15:21:00,41.0,29.0,29.61,SW,231,6.0,14.0,62,0.00,,,0.06,,2013-02-12 20:21:00,
2013-02-12 15:32:00,41.0,29.0,29.62,South,180,4.0,8.0,62,0.00,,,0.06,,2013-02-12 20:32:00,
2013-02-12 15:41:00,41.0,29.0,29.62,South,180,4.0,8.0,62,0.00,,,0.06,,2013-02-12 20:41:00,
2013-02-12 15:52:00,41.0,29.0,29.62,South,172,2.0,11.0,63,0.00,,,0.06,,2013-02-12 20:52:00,
2013-02-12 16:02:00,41.0,30.0,29.62,SSW,209,4.0,10.0,64,0.00,,,0.06,,2013-02-12 21:02:00,
2013-02-12 16:11:00,41.0,30.0,29.62,SSW,209,4.0,10.0,64,0.00,,,0.06,,2013-02-12 21:11:00,
2013-02-12 16:21:00,41.0,30.0,29.63,SSW,209,3.0,12.0,64,0.00,,,0.06,,2013-02-12 21:21:00,
2013-02-12 16:32:00,40.0,30.0,29.62,South,181,2.0,11.0,66,0.00,,,0.06,,2013-02-12 21:32:00,
2013-02-12 16:42:00,40.0,29.0,29.62,North,360,5.0,10.0,65,0.00,,,0.06,,2013-02-12 21:42:00,
2013-02-12 16:51:00,40.0,29.0,29.62,North,360,5.0,10.0,65,0.00,,,0.06,,2013-02-12 21:51:00,
2013-02-12 17:01:00,40.0,30.0,29.62,South,179,4.0,10.0,66,0.00,,,0.06,,2013-02-12 22:01:00,
2013-02-12 17:12:00,40.0,30.0,29.62,South,179,4.0,10.0,66,0.00,,,0.06,,2013-02-12 22:12:00,
2013-02-12 17:21:00,40.0,30.0,29.63,South,175,2.0,5.0,66,0.00,,,0.06,,2013-02-12 22:21:00,
2013-02-12 17:32:00,40.0,30.0,29.63,SSW,203,2.0,9.0,66,0.00,,,0.06,,2013-02-12 22:32:00,
2013-02-12 17:42:00,40.0,30.0,29.63,SSW,203,2.0,9.0,66,0.00,,,0.06,,2013-02-12 22:42:00,
2013-02-12 17:52:00,40.0,30.0,29.63,SE,140,1.0,7.0,67,0.00,,,0.06,,2013-02-12 22:52:00,
2013-02-12 18:02:00,39.0,29.0,29.64,SSE,162,2.0,6.0,67,0.00,,,0.06,,2013-02-12 23:02:00,
2013-02-12 18:11:00,39.0,30.0,29.63,SSE,164,1.0,4.0,69,0.00,,,0.06,,2013-02-12 23:11:00,
2013-02-12 18:21:00,39.0,30.0,29.63,SSE,164,1.0,4.0,69,0.00,,,0.06,,2013-02-12 23:21:00,
2013-02-12 18:32:00,39.0,29.0,29.63,SSE,149,2.0,8.0,68,0.00,,,0.06,,2013-02-12 23:32:00,
2013-02-12 18:42:00,39.0,29.0,29.63,SSE,149,2.0,8.0,68,0.00,,,0.06,,2013-02-12 23:42:00,
2013-02-12 18:52:00,39.0,30.0,29.64,SSE,156,3.0,7.0,69,0.00,,,0.06,,2013-02-12 23:52:00,
2013-02-12 19:02:00,39.0,30.0,29.65,SSE,150,1.0,4.0,69,0.00,,,0.06,,2013-02-13 00:02:00,
2013-02-12 19:11:00,39.0,30.0,29.65,SSE,150,1.0,4.0,69,0.00,,,0.06,,2013-02-13 00:11:00,
2013-02-12 19:22:00,38.0,29.0,29.66,SSW,207,2.0,6.0,69,0.00,,,0.06,,2013-02-13 00:22:00,
2013-02-12 19:32:00,38.0,29.0,29.67,SE,145,1.0,4.0,71,0.00,,,0.06,,2013-02-13 00:32:00,
2013-02-12 19:42:00,38.0,29.0,29.67,SE,145,1.0,4.0,71,0.00,,,0.06,,2013-02-13 00:42:00,
2013-02-12 19:52:00,38.0,29.0,29.68,SSW,200,1.0,6.0,71,0.00,,,0.06,,2013-02-13 00:52:00,
2013-02-12 20:01:00,38.0,29.0,29.70,SW,221,3.0,8.0,70,0.00,,,0.06,,2013-02-13 01:01:00,
2013-02-12 20:11:00,38.0,29.0,29.70,SW,221,3.0,8.0,70,0.00,,,0.06,,2013-02-13 01:11:00,
2013-02-12 20:21:00,38.0,29.0,29.71,South,174,3.0,8.0,69,0.00,,,0.06,,2013-02-13 01:21:00,
2013-02-12 20:32:00,38.0,28.0,29.72,SSW,196,2.0,5.0,68,0.00,,,0.06,,2013-02-13 01:32:00,
2013-02-12 20:42:00,38.0,28.0,29.72,SSW,196,2.0,5.0,68,0.00,,,0.06,,2013-02-13 01:42:00,
2013-02-12 20:52:00,38.0,28.0,29.74,SW,225,5.0,10.0,68,0.00,,,0.06,,2013-02-13 01:52:00,
2013-02-12 21:01:00,38.0,29.0,29.75,SSW,210,4.0,9.0,69,0.00,,,0.06,,2013-02-13 02:01:00,
2013-02-12 21:11:00,38.0,29.0,29.75,SSW,210,4.0,9.0,69,0.00,,,0.06,,2013-02-13 02:11:00,
2013-02-12 21:22:00,38.0,29.0,29.75,SSW,198,5.0,13.0,69,0.00,,,0.06,,2013-02-13 02:22:00,
2013-02-12 21:32:00,38.0,29.0,29.75,SW,216,3.0,7.0,69,0.00,,,0.06,,2013-02-13 02:32:00,
2013-02-12 21:42:00,38.0,29.0,29.75,SW,216,3.0,7.0,69,0.00,,,0.06,,2013-02-13 02:42:00,
2013-02-12 21:52:00,38.0,29.0,29.75,SSW,193,2.0,7.0,69,0.00,,,0.06,,2013-02-13 02:52:00,
2013-02-12 22:01:00,37.0,27.0,29.73,SSW,205,3.0,8.0,68,0.00,,,0.06,,2013-02-13 03:01:00,
2013-02-12 22:12:00,37.0,28.0,29.72,SSE,166,0.0,6.0,69,0.00,,,0.06,,2013-02-13 03:12:00,
2013-02-12 22:21:00,37.0,28.0,29.72,SSE,166,0.0,6.0,69,0.00,,,0.06,,2013-02-13 03:21:00,
2013-02-12 22:32:00,37.0,28.0,29.72,SE,145,1.0,8.0,69,0.00,,,0.06,,2013-02-13 03:32:00,
2013-02-12 22:42:00,37.0,28.0,29.72,SE,145,1.0,8.0,69,0.00,,,0.06,,2013-02-13 03:42:00,
2013-02-12 22:51:00,37.0,28.0,29.72,SE,145,1.0,8.0,69,0.00,,,0.06,,2013-02-13 03:51:00,
2013-02-12 23:01:00,37.0,28.0,29.72,East,101,0.0,3.0,70,0.00,,,0.06,,2013-02-13 04:01:00,
2013-02-12 23:11:00,37.0,28.0,29.72,East,101,0.0,3.0,70,0.00,,,0.06,,2013-02-13 04:11:00,
2013-02-12 23:21:00,37.0,28.0,29.71,North,9,0.0,5.0,69,0.00,,,0.06,,2013-02-13 04:21:00,
2013-02-12 23:32:00,37.0,28.0,29.71,North,9,0.0,5.0,69,0.00,,,0.06,,2013-02-13 04:32:00,
2013-02-12 23:42:00,37.0,28.0,29.71,North,9,0.0,5.0,69,0.00,,,0.06,,2013-02-13 04:42:00,
2013-02-12 23:52:00,37.0,27.0,29.71,North,355,1.0,6.0,68,0.00,,,0.06,,2013-02-13 04:52:00,